,,Stat6,,Stat2,,Stat8,,Stat9,,Stat10,,Wind1,,Wind1,
time,status,PA1M_AVG,status,PR1M_SUM,status,RH1M_AVG,status,SR1M_AVG,status,TA1M_AVG,status,W1dAve1m,status,W1sAve1m,
2007-08-18, 00:00:00,VALID,917.25,VALID,0,VALID,100,VALID,0.0339617,VALID,20.2691,VALID,160,VALID,0.708452,
2007-08-18, 00:01:00,VALID,917.246,VALID,0,VALID,100,VALID,0.0169808,VALID,20.2818,VALID,160,VALID,0.569922,
2007-08-18, 00:02:00,VALID,917.233,VALID,0,VALID,100,VALID,0.0169808,VALID,20.2851,VALID,160,VALID,0.290334,
2007-08-18, 00:03:00,VALID,917.237,VALID,0,VALID,100,VALID,0.0169808,VALID,20.3046,VALID,160,VALID,0.192769,
2007-08-18, 00:04:00,VALID,917.233,VALID,0,VALID,100,VALID,0.0169808,VALID,20.321,VALID,160,VALID,0.166788,
2007-08-18, 00:05:00,VALID,917.21,VALID,0,VALID,100,VALID,0.0339617,VALID,20.3273,VALID,160,VALID,0.326367,
2007-08-18, 00:06:00,VALID,917.218,VALID,0,VALID,100,VALID,0.0169808,VALID,20.3467,VALID,158,VALID,0.489769,
2007-08-18, 00:07:00,VALID,917.187,VALID,0,VALID,100,VALID,0,VALID,20.3635,VALID,154,VALID,0.56179,
2007-08-18, 00:08:00,VALID,917.17,VALID,0,VALID,100,VALID,0,VALID,20.3727,VALID,153,VALID,0.662972,
2007-08-18, 00:09:00,VALID,917.159,VALID,0,VALID,100,VALID,0.0339617,VALID,20.3824,VALID,153,VALID,0.65625,
2007-08-18, 00:10:00,VALID,917.151,VALID,0,VALID,100,VALID,0.0509425,VALID,20.3692,VALID,166,VALID,0.788876,
2007-08-18, 00:11:00,VALID,917.15,VALID,0,VALID,100,VALID,0.0509425,VALID,20.353,VALID,174,VALID,0.829942,
2007-08-18, 00:12:00,VALID,917.145,VALID,0,VALID,100,VALID,0.0169808,VALID,20.347,VALID,187,VALID,1.20903,
2007-08-18, 00:13:00,VALID,917.151,VALID,0,VALID,100,VALID,0.0169808,VALID,20.3338,VALID,187,VALID,0.923118,
2007-08-18, 00:14:00,VALID,917.157,VALID,0,VALID,100,VALID,0.0169808,VALID,20.3208,VALID,191,VALID,0.49399,
2007-08-18, 00:15:00,VALID,917.155,VALID,0,VALID,100,VALID,-0.0339617,VALID,20.3123,VALID,189,VALID,0.53267,
2007-08-18, 00:16:00,VALID,917.163,VALID,0,VALID,100,VALID,-0.0509425,VALID,20.3193,VALID,218,VALID,0.677083,
2007-08-18, 00:17:00,VALID,917.154,VALID,0,VALID,100,VALID,-0.101885,VALID,20.3001,VALID,226,VALID,0.681548,
2007-08-18, 00:18:00,VALID,917.148,VALID,0,VALID,100,VALID,-0.0509425,VALID,20.2931,VALID,213,VALID,0.79524,
2007-08-18, 00:19:00,VALID,917.145,VALID,0,VALID,100,VALID,-0.0339617,VALID,20.2869,VALID,197,VALID,0.800959,
2007-08-18, 00:20:00,VALID,917.142,VALID,0,VALID,100,VALID,-0.0679233,VALID,20.2672,VALID,195,VALID,0.935547,
2007-08-18, 00:21:00,VALID,917.145,VALID,0,VALID,100,VALID,-0.0169808,VALID,20.2542,VALID,204,VALID,0.730741,
2007-08-18, 00:22:00,VALID,917.169,VALID,0,VALID,100,VALID,-0.0169808,VALID,20.2507,VALID,208,VALID,0.917111,
2007-08-18, 00:23:00,VALID,917.19,VALID,0,VALID,100,VALID,0,VALID,20.2507,VALID,218,VALID,0.990412,
2007-08-18, 00:24:00,VALID,917.209,VALID,0,VALID,100,VALID,-0.0339617,VALID,20.2407,VALID,207,VALID,0.815696,
2007-08-18, 00:25:00,VALID,917.223,VALID,0,VALID,100,VALID,-0.0169808,VALID,20.2474,VALID,208,VALID,0.629906,
2007-08-18, 00:26:00,VALID,917.205,VALID,0,VALID,100,VALID,-0.0169808,VALID,20.2409,VALID,228,VALID,0.697396,
2007-08-18, 00:27:00,VALID,917.186,VALID,0,VALID,100,VALID,-0.0679233,VALID,20.2412,VALID,238,VALID,0.166903,
2007-08-18, 00:28:00,VALID,917.186,VALID,0,VALID,100,VALID,-0.0339617,VALID,20.2607,VALID,225,VALID,0.731707,
2007-08-18, 00:29:00,VALID,917.169,VALID,0,VALID,100,VALID,-0.0509425,VALID,20.2677,VALID,224,VALID,0.594638,
2007-08-18, 00:30:00,VALID,917.154,VALID,0,VALID,100,VALID,0,VALID,20.2607,VALID,203,VALID,0.349132,
2007-08-18, 00:31:00,VALID,917.154,VALID,0,VALID,100,VALID,-0.0339617,VALID,20.2574,VALID,203,VALID,0.296484,
2007-08-18, 00:32:00,VALID,917.141,VALID,0,VALID,100,VALID,-0.0509425,VALID,20.2539,VALID,201,VALID,0.339658,
2007-08-18, 00:33:00,VALID,917.15,VALID,0,VALID,100,VALID,-0.0509425,VALID,20.2509,VALID,194,VALID,0.352896,
2007-08-18, 00:34:00,VALID,917.141,VALID,0,VALID,100,VALID,-0.0339617,VALID,20.2347,VALID,192,VALID,0.454942,
2007-08-18, 00:35:00,VALID,917.145,VALID,0,VALID,100,VALID,0,VALID,20.2217,VALID,90,VALID,0.705078,
2007-08-18, 00:36:00,VALID,917.137,VALID,0,VALID,100,VALID,-0.0339617,VALID,20.2023,VALID,86,VALID,0.837271,
2007-08-18, 00:37:00,VALID,917.129,VALID,0,VALID,100,VALID,-0.0169808,VALID,20.1793,VALID,93,VALID,0.826637,
2007-08-18, 00:38:00,VALID,917.119,VALID,0,VALID,100,VALID,-0.0169808,VALID,20.1693,VALID,111,VALID,0.930827,
2007-08-18, 00:39:00,VALID,917.093,VALID,0,VALID,100,VALID,-0.0169808,VALID,20.1563,VALID,107,VALID,0.923735,
2007-08-18, 00:40:00,VALID,917.078,VALID,0,VALID,100,VALID,-0.0169808,VALID,20.1139,VALID,126,VALID,1.20108,
2007-08-18, 00:41:00,VALID,917.072,VALID,0,VALID,100,VALID,-0.0509425,VALID,20.0887,VALID,121,VALID,0.887962,
2007-08-18, 00:42:00,VALID,917.039,VALID,0,VALID,100,VALID,-0.0679233,VALID,20.0592,VALID,127,VALID,0.706076,
2007-08-18, 00:43:00,VALID,917.017,VALID,0,VALID,100,VALID,-0.0679233,VALID,20.0497,VALID,137,VALID,0.776042,
2007-08-18, 00:44:00,VALID,916.994,VALID,0,VALID,100,VALID,-0.0679233,VALID,20.0333,VALID,122,VALID,0.745593,
2007-08-18, 00:45:00,VALID,916.966,VALID,0,VALID,100,VALID,0.0509425,VALID,20.029,VALID,134,VALID,0.666797,
2007-08-18, 00:46:00,VALID,916.947,VALID,0,VALID,100,VALID,0.0849042,VALID,20.0352,VALID,130,VALID,0.796693,
2007-08-18, 00:47:00,VALID,916.915,VALID,0,VALID,100,VALID,0.0849042,VALID,20.0218,VALID,134,VALID,1.17333,
2007-08-18, 00:48:00,VALID,916.891,VALID,0,VALID,100,VALID,0.101885,VALID,20.012,VALID,123,VALID,1.5032,
2007-08-18, 00:49:00,VALID,916.883,VALID,0,VALID,100,VALID,0.118866,VALID,19.9955,VALID,115,VALID,1.20833,
2007-08-18, 00:50:00,VALID,916.859,VALID,0,VALID,100,VALID,0.0849042,VALID,19.9731,VALID,124,VALID,1.42617,
2007-08-18, 00:51:00,VALID,916.834,VALID,0,VALID,100,VALID,0.0849042,VALID,19.9668,VALID,108,VALID,1.32776,
2007-08-18, 00:52:00,VALID,916.822,VALID,0,VALID,100,VALID,0.101885,VALID,19.9466,VALID,111,VALID,1.22824,
2007-08-18, 00:53:00,VALID,916.803,VALID,0,VALID,100,VALID,0.101885,VALID,19.9339,VALID,117,VALID,1.24146,
2007-08-18, 00:54:00,VALID,916.784,VALID,0,VALID,100,VALID,0.0849042,VALID,19.9304,VALID,118,VALID,0.962536,
2007-08-18, 00:55:00,VALID,916.776,VALID,0,VALID,100,VALID,0.101885,VALID,19.9344,VALID,117,VALID,0.746189,
2007-08-18, 00:56:00,VALID,916.773,VALID,0,VALID,100,VALID,0.0679233,VALID,19.9312,VALID,115,VALID,1.08185,
2007-08-18, 00:57:00,VALID,916.75,VALID,0,VALID,100,VALID,0.0849042,VALID,19.8977,VALID,123,VALID,0.881541,
2007-08-18, 00:58:00,VALID,916.729,VALID,0,VALID,100,VALID,0.118866,VALID,19.9012,VALID,130,VALID,0.936955,
2007-08-18, 00:59:00,VALID,916.702,VALID,0,VALID,100,VALID,0.0849042,VALID,19.9017,VALID,136,VALID,1.13139,
2007-08-18, 01:00:00,VALID,916.676,VALID,0,VALID,100,VALID,0,VALID,19.8927,VALID,129,VALID,1.28348,
2007-08-18, 01:01:00,VALID,916.653,VALID,0,VALID,100,VALID,-0.0169808,VALID,19.887,VALID,139,VALID,1.5524,
2007-08-18, 01:02:00,VALID,916.644,VALID,0,VALID,100,VALID,-0.0169808,VALID,19.877,VALID,142,VALID,1.08691,
2007-08-18, 01:03:00,VALID,916.638,VALID,0,VALID,100,VALID,-0.0169808,VALID,19.8803,VALID,146,VALID,1.26469,
2007-08-18, 01:04:00,VALID,916.618,VALID,0,VALID,100,VALID,-0.0169808,VALID,19.8803,VALID,153,VALID,1.27907,
2007-08-18, 01:05:00,VALID,916.61,VALID,0,VALID,100,VALID,0,VALID,19.89,VALID,144,VALID,1.03672,
2007-08-18, 01:06:00,VALID,916.605,VALID,0,VALID,100,VALID,-0.0169808,VALID,19.8937,VALID,154,VALID,0.908053,
2007-08-18, 01:07:00,VALID,916.601,VALID,0,VALID,100,VALID,-0.0169808,VALID,19.8932,VALID,151,VALID,1.25462,
2007-08-18, 01:08:00,VALID,916.606,VALID,0,VALID,100,VALID,0,VALID,19.8925,VALID,154,VALID,0.992773,
2007-08-18, 01:09:00,VALID,916.599,VALID,0,VALID,100,VALID,0,VALID,19.8992,VALID,144,VALID,0.838356,
2007-08-18, 01:10:00,VALID,916.6,VALID,0,VALID,100,VALID,0,VALID,19.9062,VALID,158,VALID,0.707589,
2007-08-18, 01:11:00,VALID,916.599,VALID,0,VALID,100,VALID,-0.0169808,VALID,19.8927,VALID,154,VALID,1.00654,
2007-08-18, 01:12:00,VALID,916.594,VALID,0,VALID,100,VALID,0.0169808,VALID,19.8927,VALID,155,VALID,0.803385,
2007-08-18, 01:13:00,VALID,916.573,VALID,0,VALID,100,VALID,0,VALID,19.893,VALID,146,VALID,0.81994,
2007-08-18, 01:14:00,VALID,916.565,VALID,0,VALID,100,VALID,-0.0339617,VALID,19.89,VALID,126,VALID,0.762649,
2007-08-18, 01:15:00,VALID,916.558,VALID,0,VALID,100,VALID,-0.0169808,VALID,19.88,VALID,131,VALID,0.981286,
2007-08-18, 01:16:00,VALID,916.553,VALID,0,VALID,100,VALID,-0.0339617,VALID,19.8835,VALID,133,VALID,1.0582,
2007-08-18, 01:17:00,VALID,916.547,VALID,0,VALID,100,VALID,-0.0169808,VALID,19.8703,VALID,140,VALID,1.00908,
2007-08-18, 01:18:00,VALID,916.54,VALID,0,VALID,100,VALID,0,VALID,19.8665,VALID,145,VALID,0.855569,
2007-08-18, 01:19:00,VALID,916.535,VALID,0,VALID,100,VALID,0,VALID,19.857,VALID,144,VALID,0.613186,
2007-08-18, 01:20:00,VALID,916.533,VALID,0,VALID,100,VALID,-0.0339617,VALID,19.8613,VALID,152,VALID,1.06823,
2007-08-18, 01:21:00,VALID,916.53,VALID,0,VALID,100,VALID,0,VALID,19.8373,VALID,158,VALID,1.04106,
2007-08-18, 01:22:00,VALID,916.538,VALID,0,VALID,100,VALID,0,VALID,19.8316,VALID,159,VALID,1.12411,
2007-08-18, 01:23:00,VALID,916.537,VALID,0,VALID,100,VALID,-0.0169808,VALID,19.8216,VALID,162,VALID,0.950149,
2007-08-18, 01:24:00,VALID,916.529,VALID,0,VALID,100,VALID,-0.0169808,VALID,19.8084,VALID,164,VALID,0.855078,
2007-08-18, 01:25:00,VALID,916.516,VALID,0,VALID,100,VALID,0,VALID,19.7984,VALID,162,VALID,0.836682,
2007-08-18, 01:26:00,VALID,916.507,VALID,0,VALID,100,VALID,0,VALID,19.7991,VALID,159,VALID,0.816679,
2007-08-18, 01:27:00,VALID,916.511,VALID,0,VALID,100,VALID,0,VALID,19.7921,VALID,161,VALID,0.840298,
2007-08-18, 01:28:00,VALID,916.496,VALID,0,VALID,100,VALID,-0.0169808,VALID,19.7929,VALID,157,VALID,0.473047,
2007-08-18, 01:29:00,VALID,916.487,VALID,0,VALID,100,VALID,-0.0509425,VALID,19.7757,VALID,160,VALID,0.9246,
2007-08-18, 01:30:00,VALID,916.461,VALID,0,VALID,100,VALID,-0.0169808,VALID,19.7627,VALID,160,VALID,0.832386,
2007-08-18, 01:31:00,VALID,916.433,VALID,0,VALID,100,VALID,0,VALID,19.76,VALID,158,VALID,0.695703,
2007-08-18, 01:32:00,VALID,916.394,VALID,0,VALID,100,VALID,0,VALID,19.7632,VALID,152,VALID,0.680889,
2007-08-18, 01:33:00,VALID,916.37,VALID,0,VALID,100,VALID,0,VALID,19.7437,VALID,145,VALID,0.734028,
2007-08-18, 01:34:00,VALID,916.34,VALID,0,VALID,100,VALID,-0.0169808,VALID,19.747,VALID,128,VALID,1.06868,
2007-08-18, 01:35:00,VALID,916.325,VALID,0,VALID,100,VALID,-0.0169808,VALID,19.7567,VALID,125,VALID,1.13224,
2007-08-18, 01:36:00,VALID,916.311,VALID,0,VALID,100,VALID,0.0169808,VALID,19.7759,VALID,122,VALID,0.989329,
2007-08-18, 01:37:00,VALID,916.299,VALID,0,VALID,100,VALID,-0.0339617,VALID,19.7697,VALID,114,VALID,0.908346,
2007-08-18, 01:38:00,VALID,916.301,VALID,0,VALID,100,VALID,-0.0169808,VALID,19.7629,VALID,118,VALID,0.960405,
2007-08-18, 01:39:00,VALID,916.303,VALID,0,VALID,100,VALID,0,VALID,19.7697,VALID,121,VALID,0.823103,
2007-08-18, 01:40:00,VALID,916.299,VALID,0,VALID,100,VALID,-0.0509425,VALID,19.7699,VALID,123,VALID,0.547602,
2007-08-18, 01:41:00,VALID,916.301,VALID,0,VALID,100,VALID,-0.0509425,VALID,19.7597,VALID,115,VALID,0.710938,
2007-08-18, 01:42:00,VALID,916.304,VALID,0,VALID,100,VALID,-0.0169808,VALID,19.7532,VALID,109,VALID,0.575,
2007-08-18, 01:43:00,VALID,916.299,VALID,0,VALID,100,VALID,0,VALID,19.747,VALID,93,VALID,0.590039,
2007-08-18, 01:44:00,VALID,916.301,VALID,0,VALID,100,VALID,-0.0339617,VALID,19.7283,VALID,62,VALID,1.04861,
2007-08-18, 01:45:00,VALID,916.292,VALID,0,VALID,100,VALID,0,VALID,19.6948,VALID,52,VALID,0.824886,
2007-08-18, 01:46:00,VALID,916.288,VALID,0,VALID,100,VALID,-0.0339617,VALID,19.6921,VALID,70,VALID,0.857031,
2007-08-18, 01:47:00,VALID,916.285,VALID,0,VALID,100,VALID,-0.0339617,VALID,19.6983,VALID,77,VALID,0.866523,
2007-08-18, 01:48:00,VALID,916.283,VALID,0,VALID,100,VALID,-0.0509425,VALID,19.7505,VALID,93,VALID,0.914825,
2007-08-18, 01:49:00,VALID,916.294,VALID,0,VALID,100,VALID,-0.0849042,VALID,19.8021,VALID,108,VALID,0.87128,
2007-08-18, 01:50:01,VALID,916.297,VALID,0,VALID,100,VALID,-0.0339617,VALID,19.8286,VALID,111,VALID,0.501635,
2007-08-18, 01:51:00,VALID,916.303,VALID,0,VALID,100,VALID,-0.0169808,VALID,19.8313,VALID,111,VALID,0.458705,
2007-08-18, 01:52:00,VALID,916.301,VALID,0,VALID,100,VALID,-0.0169808,VALID,19.8283,VALID,111,VALID,0.16183,
2007-08-18, 01:53:00,VALID,916.316,VALID,0,VALID,100,VALID,-0.0339617,VALID,19.8348,VALID,111,VALID,0,
2007-08-18, 01:54:00,VALID,916.314,VALID,0,VALID,99.8754,VALID,-0.0339617,VALID,19.747,VALID,111,VALID,0,
2007-08-18, 01:55:00,VALID,916.312,VALID,0,VALID,99.8413,VALID,0,VALID,19.6918,VALID,111,VALID,0,
2007-08-18, 01:56:00,VALID,916.3,VALID,0,VALID,99.9789,VALID,0,VALID,19.6689,VALID,111,VALID,0,
2007-08-18, 01:57:00,VALID,916.283,VALID,0,VALID,100,VALID,-0.0169808,VALID,19.6561,VALID,111,VALID,0,
2007-08-18, 01:58:00,VALID,916.267,VALID,0,VALID,100,VALID,-0.0169808,VALID,19.6461,VALID,111,VALID,0,
2007-08-18, 01:59:00,VALID,916.258,VALID,0,VALID,100,VALID,-0.0509425,VALID,19.6427,VALID,111,VALID,0.162791,
2007-08-18, 02:00:01,VALID,916.277,VALID,0,VALID,100,VALID,-0.0509425,VALID,19.6531,VALID,111,VALID,0.495046,
2007-08-18, 02:01:00,VALID,916.285,VALID,0,VALID,100,VALID,-0.0679233,VALID,19.6364,VALID,110,VALID,0.494186,
2007-08-18, 02:02:00,VALID,916.292,VALID,0,VALID,100,VALID,-0.0339617,VALID,19.6372,VALID,109,VALID,0.504906,
2007-08-18, 02:03:01,VALID,916.3,VALID,0,VALID,100,VALID,-0.0849042,VALID,19.6334,VALID,109,VALID,0.309304,
2007-08-18, 02:04:00,VALID,916.311,VALID,0,VALID,100,VALID,-0.0509425,VALID,19.6496,VALID,109,VALID,0.253634,
2007-08-18, 02:05:00,VALID,916.309,VALID,0,VALID,100,VALID,-0.0849042,VALID,19.6496,VALID,105,VALID,0.268532,
2007-08-18, 02:06:01,VALID,916.297,VALID,0,VALID,100,VALID,-0.0679233,VALID,19.6174,VALID,102,VALID,0.248998,
2007-08-18, 02:07:01,VALID,916.27,VALID,0,VALID,100,VALID,-0.0849042,VALID,19.5526,VALID,97,VALID,0.493096,
2007-08-18, 02:08:00,VALID,916.247,VALID,0,VALID,100,VALID,-0.0679233,VALID,19.5301,VALID,90,VALID,0.558594,
2007-08-18, 02:09:00,VALID,916.223,VALID,0,VALID,100,VALID,-0.0679233,VALID,19.5204,VALID,91,VALID,0.66875,
2007-08-18, 02:10:00,VALID,916.207,VALID,0,VALID,100,VALID,-0.0679233,VALID,19.5403,VALID,94,VALID,0.829033,
2007-08-18, 02:11:00,VALID,916.206,VALID,0,VALID,100,VALID,-0.0679233,VALID,19.5301,VALID,101,VALID,0.657774,
2007-08-18, 02:12:01,VALID,916.211,VALID,0,VALID,100,VALID,-0.0849042,VALID,19.5239,VALID,109,VALID,0.764027,
2007-08-18, 02:13:01,VALID,916.205,VALID,0,VALID,100,VALID,-0.0849042,VALID,19.5239,VALID,105,VALID,1.00605,
2007-08-18, 02:14:00,VALID,916.202,VALID,0,VALID,100,VALID,-0.0339617,VALID,19.5199,VALID,112,VALID,0.979353,
2007-08-18, 02:15:00,VALID,916.188,VALID,0,VALID,100,VALID,-0.0339617,VALID,19.5398,VALID,128,VALID,1.00436,
2007-08-18, 02:16:01,VALID,916.167,VALID,0,VALID,100,VALID,-0.0169808,VALID,19.5358,VALID,121,VALID,1.27697,
2007-08-18, 02:17:01,VALID,916.156,VALID,0,VALID,100,VALID,-0.0679233,VALID,19.5558,VALID,126,VALID,1.42596,
2007-08-18, 02:18:00,VALID,916.142,VALID,0,VALID,100,VALID,-0.0339617,VALID,19.5561,VALID,131,VALID,1.03214,
2007-08-18, 02:19:00,VALID,916.144,VALID,0,VALID,100,VALID,-0.0849042,VALID,19.5723,VALID,134,VALID,1.23084,
2007-08-18, 02:20:00,VALID,916.128,VALID,0,VALID,100,VALID,-0.0679233,VALID,19.595,VALID,140,VALID,1.45331,
2007-08-18, 02:21:00,VALID,916.126,VALID,0,VALID,100,VALID,-0.0169808,VALID,19.6145,VALID,141,VALID,1.66845,
2007-08-18, 02:22:00,VALID,916.122,VALID,0,VALID,100,VALID,-0.0509425,VALID,19.6471,VALID,142,VALID,1.21131,
2007-08-18, 02:23:00,VALID,916.104,VALID,0,VALID,100,VALID,-0.0339617,VALID,19.6464,VALID,145,VALID,1.08359,
2007-08-18, 02:24:01,VALID,916.092,VALID,0,VALID,100,VALID,-0.0339617,VALID,19.6529,VALID,127,VALID,1.58906,
2007-08-18, 02:25:00,VALID,916.089,VALID,0,VALID,100,VALID,-0.0509425,VALID,19.6694,VALID,137,VALID,1.09896,
2007-08-18, 02:26:01,VALID,916.085,VALID,0,VALID,100,VALID,-0.0509425,VALID,19.6763,VALID,134,VALID,1.22675,
2007-08-18, 02:27:00,VALID,916.084,VALID,0,VALID,100,VALID,-0.0679233,VALID,19.6726,VALID,134,VALID,0.881541,
2007-08-18, 02:28:00,VALID,916.09,VALID,0,VALID,100,VALID,-0.0679233,VALID,19.6694,VALID,133,VALID,1.05941,
2007-08-18, 02:29:00,VALID,916.081,VALID,0,VALID,100,VALID,-0.0679233,VALID,19.6691,VALID,146,VALID,0.755149,
2007-08-18, 02:30:00,VALID,916.066,VALID,0,VALID,100,VALID,-0.0679233,VALID,19.6821,VALID,145,VALID,1.0149,
2007-08-18, 02:31:01,VALID,916.073,VALID,0,VALID,100,VALID,-0.0849042,VALID,19.7148,VALID,132,VALID,0.650746,
2007-08-18, 02:32:00,VALID,916.055,VALID,0,VALID,100,VALID,-0.0679233,VALID,19.7213,VALID,160,VALID,1.0731,
2007-08-18, 02:33:00,VALID,916.047,VALID,0,VALID,100,VALID,-0.0849042,VALID,19.7313,VALID,139,VALID,1.25672,
2007-08-18, 02:34:00,VALID,916.047,VALID,0,VALID,100,VALID,-0.0509425,VALID,19.7342,VALID,146,VALID,1.2024,
2007-08-18, 02:35:01,VALID,916.044,VALID,0,VALID,100,VALID,-0.0679233,VALID,19.7275,VALID,143,VALID,0.753196,
2007-08-18, 02:36:01,VALID,916.04,VALID,0,VALID,100,VALID,-0.101885,VALID,19.7185,VALID,127,VALID,0.771354,
2007-08-18, 02:37:00,VALID,916.033,VALID,0,VALID,100,VALID,-0.0849042,VALID,19.7153,VALID,142,VALID,1.31021,
2007-08-18, 02:38:00,VALID,916.034,VALID,0,VALID,100,VALID,-0.0679233,VALID,19.7118,VALID,147,VALID,0.944404,
2007-08-18, 02:39:01,VALID,916.034,VALID,0,VALID,100,VALID,-0.0849042,VALID,19.7083,VALID,132,VALID,1.0875,
2007-08-18, 02:40:01,VALID,916.028,VALID,0,VALID,100,VALID,-0.0679233,VALID,19.7215,VALID,144,VALID,1.13858,
2007-08-18, 02:41:01,VALID,916.038,VALID,0,VALID,100,VALID,-0.0679233,VALID,19.7113,VALID,132,VALID,0.795058,
2007-08-18, 02:42:01,VALID,916.031,VALID,0,VALID,100,VALID,-0.0509425,VALID,19.718,VALID,129,VALID,1.11471,
2007-08-18, 02:43:01,VALID,916.015,VALID,0,VALID,100,VALID,-0.0849042,VALID,19.7185,VALID,129,VALID,0.788086,
2007-08-18, 02:44:01,VALID,915.998,VALID,0,VALID,100,VALID,-0.0509425,VALID,19.7215,VALID,118,VALID,0.810976,
2007-08-18, 02:45:01,VALID,916.003,VALID,0,VALID,100,VALID,0.0509425,VALID,19.7001,VALID,131,VALID,0.850991,
2007-08-18, 02:46:01,VALID,916,VALID,0,VALID,100,VALID,0.0509425,VALID,19.6968,VALID,123,VALID,0.767671,
2007-08-18, 02:47:01,VALID,916.002,VALID,0,VALID,100,VALID,0.0509425,VALID,19.7003,VALID,135,VALID,0.601563,
2007-08-18, 02:48:01,VALID,915.99,VALID,0,VALID,100,VALID,0.0169808,VALID,19.7006,VALID,148,VALID,0.52381,
2007-08-18, 02:49:01,VALID,915.981,VALID,0,VALID,100,VALID,0.0509425,VALID,19.6976,VALID,150,VALID,0.51181,
2007-08-18, 02:50:00,VALID,915.973,VALID,0,VALID,100,VALID,0.0169808,VALID,19.6878,VALID,170,VALID,0.384896,
2007-08-18, 02:51:00,VALID,915.966,VALID,0,VALID,100,VALID,0.0509425,VALID,19.6976,VALID,130,VALID,0.186632,
2007-08-18, 02:52:00,VALID,915.956,VALID,0,VALID,100,VALID,0.0509425,VALID,19.6773,VALID,139,VALID,0.313953,
2007-08-18, 02:53:00,VALID,915.951,VALID,0,VALID,100,VALID,0.0339617,VALID,19.6679,VALID,140,VALID,0.295201,
2007-08-18, 02:54:00,VALID,915.93,VALID,0,VALID,100,VALID,0,VALID,19.6681,VALID,147,VALID,0.450639,
2007-08-18, 02:55:00,VALID,915.93,VALID,0,VALID,100,VALID,0.0169808,VALID,19.6619,VALID,142,VALID,0.5867,
2007-08-18, 02:56:00,VALID,915.915,VALID,0,VALID,100,VALID,0.0169808,VALID,19.6619,VALID,160,VALID,0.405523,
2007-08-18, 02:57:00,VALID,915.914,VALID,0,VALID,100,VALID,0.0339617,VALID,19.6554,VALID,156,VALID,0.413477,
2007-08-18, 02:58:00,VALID,915.901,VALID,0,VALID,100,VALID,0.0339617,VALID,19.6292,VALID,180,VALID,0.311047,
2007-08-18, 02:59:00,VALID,915.892,VALID,0,VALID,100,VALID,0.0169808,VALID,19.6232,VALID,144,VALID,0.267361,
2007-08-18, 03:00:00,VALID,915.887,VALID,0,VALID,100,VALID,-0.0509425,VALID,19.6077,VALID,169,VALID,0.625572,
2007-08-18, 03:01:00,VALID,915.855,VALID,0,VALID,100,VALID,-0.0509425,VALID,19.5952,VALID,164,VALID,0.561166,
2007-08-18, 03:02:00,VALID,915.845,VALID,0,VALID,100,VALID,-0.0169808,VALID,19.5788,VALID,162,VALID,0.208519,
2007-08-18, 03:03:00,VALID,915.822,VALID,0,VALID,100,VALID,-0.0169808,VALID,19.5558,VALID,161,VALID,0.487464,
2007-08-18, 03:04:00,VALID,915.828,VALID,0,VALID,100,VALID,-0.0509425,VALID,19.5563,VALID,159,VALID,0.479297,
2007-08-18, 03:05:00,VALID,915.814,VALID,0,VALID,100,VALID,-0.0169808,VALID,19.5229,VALID,177,VALID,0.574033,
2007-08-18, 03:06:00,VALID,915.819,VALID,0,VALID,100,VALID,0,VALID,19.5134,VALID,169,VALID,0.556362,
2007-08-18, 03:07:00,VALID,915.815,VALID,0,VALID,100,VALID,0.0169808,VALID,19.4969,VALID,176,VALID,0.458519,
2007-08-18, 03:08:00,VALID,915.831,VALID,0,VALID,100,VALID,-0.0169808,VALID,19.4675,VALID,184,VALID,0.700977,
2007-08-18, 03:09:00,VALID,915.841,VALID,0,VALID,100,VALID,-0.0169808,VALID,19.4615,VALID,172,VALID,0.532138,
2007-08-18, 03:10:00,VALID,915.85,VALID,0,VALID,100,VALID,-0.0339617,VALID,19.4547,VALID,166,VALID,0.707403,
2007-08-18, 03:11:00,VALID,915.868,VALID,0,VALID,100,VALID,-0.0339617,VALID,19.4682,VALID,173,VALID,0.932546,
2007-08-18, 03:12:00,VALID,915.863,VALID,0,VALID,100,VALID,-0.0169808,VALID,19.4645,VALID,142,VALID,0.965376,
2007-08-18, 03:13:00,VALID,915.866,VALID,0,VALID,100,VALID,-0.0339617,VALID,19.4779,VALID,134,VALID,1.37676,
2007-08-18, 03:14:00,VALID,915.878,VALID,0,VALID,100,VALID,0,VALID,19.4999,VALID,126,VALID,1.37407,
2007-08-18, 03:15:00,VALID,915.872,VALID,0,VALID,100,VALID,0,VALID,19.5326,VALID,143,VALID,0.954883,
2007-08-18, 03:16:00,VALID,915.855,VALID,0,VALID,100,VALID,0,VALID,19.5423,VALID,139,VALID,1.18787,
2007-08-18, 03:17:00,VALID,915.857,VALID,0,VALID,100,VALID,0,VALID,19.5553,VALID,138,VALID,1.49782,
2007-08-18, 03:18:00,VALID,915.871,VALID,0,VALID,100,VALID,0,VALID,19.5875,VALID,126,VALID,1.07279,
2007-08-18, 03:19:00,VALID,915.873,VALID,0,VALID,100,VALID,0,VALID,19.6007,VALID,135,VALID,1.17225,
2007-08-18, 03:20:00,VALID,915.891,VALID,0,VALID,100,VALID,-0.0169808,VALID,19.601,VALID,141,VALID,1.17951,
2007-08-18, 03:21:00,VALID,915.895,VALID,0,VALID,100,VALID,0,VALID,19.607,VALID,128,VALID,0.865663,
2007-08-18, 03:22:00,VALID,915.907,VALID,0,VALID,100,VALID,-0.0169808,VALID,19.6107,VALID,131,VALID,1.33289,
2007-08-18, 03:23:00,VALID,915.917,VALID,0,VALID,100,VALID,0,VALID,19.6137,VALID,133,VALID,1.21566,
2007-08-18, 03:24:00,VALID,915.916,VALID,0,VALID,100,VALID,-0.0339617,VALID,19.6269,VALID,147,VALID,1.3125,
2007-08-18, 03:25:00,VALID,915.908,VALID,0,VALID,100,VALID,0.0169808,VALID,19.6432,VALID,140,VALID,1.19141,
2007-08-18, 03:26:00,VALID,915.896,VALID,0,VALID,100,VALID,-0.0169808,VALID,19.6491,VALID,130,VALID,1.68142,
2007-08-18, 03:27:00,VALID,915.867,VALID,0,VALID,100,VALID,0,VALID,19.6751,VALID,126,VALID,1.15642,
2007-08-18, 03:28:00,VALID,915.861,VALID,0,VALID,100,VALID,0,VALID,19.6783,VALID,104,VALID,0.854102,
2007-08-18, 03:29:00,VALID,915.844,VALID,0,VALID,100,VALID,0,VALID,19.6818,VALID,104,VALID,0.646569,
2007-08-18, 03:30:00,VALID,915.84,VALID,0,VALID,100,VALID,-0.0169808,VALID,19.6788,VALID,115,VALID,1.1005,
2007-08-18, 03:31:00,VALID,915.839,VALID,0,VALID,99.9944,VALID,0.0169808,VALID,19.6751,VALID,99,VALID,0.440104,
2007-08-18, 03:32:00,VALID,915.844,VALID,0,VALID,99.9341,VALID,0,VALID,19.6589,VALID,107,VALID,0.531808,
2007-08-18, 03:33:00,VALID,915.869,VALID,0,VALID,99.9519,VALID,-0.0169808,VALID,19.6534,VALID,109,VALID,0.286384,
2007-08-18, 03:34:00,VALID,915.864,VALID,0,VALID,99.9809,VALID,-0.0339617,VALID,19.6337,VALID,118,VALID,0.233445,
2007-08-18, 03:35:00,VALID,915.889,VALID,0,VALID,100,VALID,-0.0339617,VALID,19.6234,VALID,115,VALID,0.331101,
2007-08-18, 03:36:00,VALID,915.902,VALID,0,VALID,100,VALID,0,VALID,19.6102,VALID,119,VALID,0.178925,
2007-08-18, 03:37:00,VALID,915.913,VALID,0,VALID,100,VALID,-0.0169808,VALID,19.614,VALID,119,VALID,0.0243253,
2007-08-18, 03:38:00,VALID,915.92,VALID,0,VALID,100,VALID,-0.0509425,VALID,19.6042,VALID,119,VALID,0.108259,
2007-08-18, 03:39:00,VALID,915.957,VALID,0,VALID,100,VALID,0,VALID,19.5875,VALID,120,VALID,0.391036,
2007-08-18, 03:40:00,VALID,915.971,VALID,0,VALID,99.998,VALID,-0.0169808,VALID,19.5523,VALID,242,VALID,0.77691,
2007-08-18, 03:41:00,VALID,915.986,VALID,0,VALID,100,VALID,-0.0679233,VALID,19.4937,VALID,249,VALID,0.684048,